• In Uzbekistan
  • List of Countries
  • For 7 days
  • Water Temperature
  • Satellite Maps
  • Weather Map
  • Weather Widgets
  • user-avatar
    Login

    Hourly Weather Idzhewan

    Today, 25 March, Saturday

    Time Temperature Precipitation Wind Pressure Humidity
    00:00 +2°C° 0 mm 1 mps 696 mmHg 95%
    01:00 +1°C° 0 mm 1 mps 695 mmHg 95%
    02:00 0°C° 0 mm 0 mps 695 mmHg 96%
    03:00 -1°C° 0 mm 0 mps 695 mmHg 96%
    04:00 -1°C° 0 mm 0 mps 694 mmHg 96%
    05:00 -1°C° 0 mm 0 mps 694 mmHg 96%
    06:00 -1°C° 0 mm 0 mps 694 mmHg 95%
    07:00 +2°C° 0 mm 0 mps 694 mmHg 88%
    08:00 +4°C° 0 mm 0 mps 694 mmHg 80%
    09:00 +7°C° 0 mm 0 mps 694 mmHg 70%
    10:00 +9°C° 0 mm 1 mps 694 mmHg 68%
    11:00 +10°C° 0 mm 1 mps 694 mmHg 66%
    12:00 +11°C° 0 mm 1 mps 693 mmHg 63%
    13:00 +12°C° 0 mm 1 mps 693 mmHg 63%
    14:00 +12°C° 0 mm 1 mps 692 mmHg 62%
    15:00 +12°C° 0 mm 1 mps 692 mmHg 62%
    16:00 +10°C° 0 mm 1 mps 691 mmHg 69%
    17:00 +8°C° 0 mm 1 mps 691 mmHg 76%
    18:00 +7°C° 0 mm 1 mps 691 mmHg 82%
    19:00 +6°C° 0 mm 1 mps 691 mmHg 84%
    20:00 +5°C° 0 mm 1 mps 691 mmHg 86%
    21:00 +4°C° 0 mm 1 mps 691 mmHg 88%
    22:00 +4°C° 0 mm 1 mps 691 mmHg 88%
    23:00 +4°C° 0 mm 1 mps 691 mmHg 88%

    Tomorrow, 26 March, Sunday

    Time Temperature Precipitation Wind Pressure Humidity
    00:00 +4°C° 0 mm 1 mps 692 mmHg 88%
    01:00 +3°C° 0 mm 1 mps 692 mmHg 88%
    02:00 +3°C° 0 mm 1 mps 692 mmHg 88%
    03:00 +3°C° 0 mm 1 mps 692 mmHg 87%
    04:00 +3°C° 0 mm 1 mps 692 mmHg 86%
    05:00 +3°C° 0 mm 1 mps 692 mmHg 84%
    06:00 +3°C° 0 mm 1 mps 692 mmHg 83%
    07:00 +5°C° 0 mm 1 mps 692 mmHg 76%
    08:00 +7°C° 0 mm 1 mps 692 mmHg 69%
    09:00 +10°C° 0 mm 1 mps 692 mmHg 62%
    10:00 +11°C° 0 mm 1 mps 692 mmHg 59%
    11:00 +12°C° 0 mm 1 mps 691 mmHg 57%
    12:00 +14°C° 0 mm 1 mps 691 mmHg 54%
    13:00 +14°C° 0 mm 1 mps 691 mmHg 53%
    14:00 +14°C° 0 mm 1 mps 691 mmHg 52%
    15:00 +15°C° 0 mm 1 mps 690 mmHg 51%
    16:00 +13°C° 0 mm 1 mps 690 mmHg 58%
    17:00 +11°C° 0 mm 1 mps 690 mmHg 65%
    18:00 +10°C° 0 mm 1 mps 691 mmHg 71%
    19:00 +9°C° 0 mm 1 mps 691 mmHg 73%
    20:00 +8°C° 0 mm 1 mps 691 mmHg 74%
    21:00 +7°C° 0 mm 1 mps 692 mmHg 75%
    22:00 +5°C° 0 mm 2 mps 692 mmHg 75%
    23:00 +5°C° 0 mm 2 mps 692 mmHg 75%

    Day after tomorrow, 27 March, Monday

    Time Temperature Precipitation Wind Pressure Humidity
    00:00 +5°C° 0 mm 2 mps 692 mmHg 75%
    01:00 +5°C° 0 mm 2 mps 692 mmHg 75%
    02:00 +5°C° 0 mm 2 mps 692 mmHg 75%
    03:00 +4°C° 0 mm 2 mps 691 mmHg 75%
    04:00 +4°C° 0 mm 2 mps 691 mmHg 76%
    05:00 +4°C° 0 mm 2 mps 691 mmHg 76%
    06:00 +4°C° 0 mm 2 mps 691 mmHg 76%
    07:00 +6°C° 0 mm 2 mps 691 mmHg 69%
    08:00 +8°C° 0 mm 2 mps 691 mmHg 62%
    09:00 +12°C° 0 mm 1 mps 691 mmHg 55%
    10:00 +13°C° 0 mm 2 mps 691 mmHg 53%
    11:00 +14°C° 0 mm 2 mps 691 mmHg 50%
    12:00 +15°C° 0 mm 2 mps 691 mmHg 47%
    13:00 +16°C° 0 mm 2 mps 690 mmHg 47%
    14:00 +16°C° 0 mm 2 mps 690 mmHg 48%
    15:00 +16°C° 0 mm 2 mps 689 mmHg 48%
    16:00 +14°C° 0 mm 2 mps 689 mmHg 54%
    17:00 +13°C° 0 mm 2 mps 689 mmHg 61%
    18:00 +10°C° 0 mm 2 mps 689 mmHg 68%
    19:00 +9°C° 0 mm 2 mps 690 mmHg 71%
    20:00 +8°C° 0 mm 2 mps 690 mmHg 74%
    21:00 +8°C° 0 mm 1 mps 690 mmHg 77%
    22:00 +8°C° 0 mm 1 mps 690 mmHg 78%
    23:00 +8°C° 0 mm 1 mps 690 mmHg 80%

    28 March, Tuesday

    Time Temperature Precipitation Wind Pressure Humidity
    00:00 +7°C° 0 mm 1 mps 690 mmHg 81%
    01:00 +7°C° 0 mm 1 mps 690 mmHg 82%
    02:00 +7°C° 0 mm 1 mps 690 mmHg 83%
    03:00 +7°C° 0 mm 1 mps 690 mmHg 85%
    04:00 +7°C° 0 mm 1 mps 690 mmHg 85%
    05:00 +6°C° 0 mm 1 mps 690 mmHg 85%
    06:00 +6°C° 0 mm 1 mps 690 mmHg 85%
    07:00 +7°C° 0 mm 2 mps 690 mmHg 78%
    08:00 +9°C° 0 mm 2 mps 690 mmHg 71%
    09:00 +10°C° 0 mm 2 mps 691 mmHg 64%
    10:00 +12°C° 0.2 mm 2 mps 691 mmHg 63%
    11:00 +12°C° 0.2 mm 2 mps 691 mmHg 63%
    12:00 +12°C° 0.2 mm 3 mps 691 mmHg 62%
    13:00 +13°C° 0.5 mm 2 mps 691 mmHg 65%
    14:00 +12°C° 0.5 mm 2 mps 690 mmHg 68%
    15:00 +12°C° 0.5 mm 1 mps 690 mmHg 70%
    16:00 +11°C° 0.3 mm 1 mps 691 mmHg 75%
    17:00 +10°C° 0.3 mm 1 mps 691 mmHg 80%
    18:00 +9°C° 0.3 mm 1 mps 691 mmHg 85%
    19:00 +8°C° 0.1 mm 1 mps 692 mmHg 86%
    20:00 +7°C° 0.1 mm 0 mps 692 mmHg 88%
    21:00 +6°C° 0.1 mm 0 mps 693 mmHg 89%
    22:00 +5°C° 0 mm 0 mps 693 mmHg 89%
    23:00 +6°C° 0 mm 1 mps 693 mmHg 89%

    29 March, Wednesday

    Time Temperature Precipitation Wind Pressure Humidity
    00:00 +5°C° 0 mm 1 mps 693 mmHg 89%
    01:00 +5°C° 0 mm 1 mps 693 mmHg 88%
    02:00 +5°C° 0 mm 1 mps 693 mmHg 87%
    03:00 +5°C° 0 mm 1 mps 692 mmHg 86%
    04:00 +5°C° 0 mm 1 mps 692 mmHg 86%
    05:00 +5°C° 0 mm 1 mps 692 mmHg 85%
    06:00 +5°C° 0 mm 1 mps 692 mmHg 85%
    07:00 +6°C° 0 mm 2 mps 693 mmHg 77%
    08:00 +8°C° 0 mm 2 mps 693 mmHg 69%
    09:00 +10°C° 0 mm 2 mps 693 mmHg 62%
    10:00 +12°C° 0 mm 2 mps 693 mmHg 58%
    11:00 +13°C° 0 mm 2 mps 693 mmHg 54%
    12:00 +13°C° 0 mm 3 mps 693 mmHg 50%
    13:00 +14°C° 0 mm 3 mps 692 mmHg 50%
    14:00 +14°C° 0 mm 3 mps 692 mmHg 49%
    15:00 +14°C° 0 mm 3 mps 692 mmHg 49%
    16:00 +13°C° 0 mm 2 mps 692 mmHg 56%
    17:00 +12°C° 0 mm 2 mps 692 mmHg 63%
    18:00 +10°C° 0 mm 1 mps 692 mmHg 70%
    19:00 +9°C° 0 mm 1 mps 693 mmHg 72%
    20:00 +7°C° 0 mm 1 mps 693 mmHg 75%
    21:00 +6°C° 0 mm 1 mps 694 mmHg 78%
    22:00 +6°C° 0 mm 1 mps 694 mmHg 79%
    23:00 +6°C° 0 mm 1 mps 695 mmHg 80%

    30 March, Thursday

    Time Temperature Precipitation Wind Pressure Humidity
    00:00 +5°C° 0 mm 1 mps 695 mmHg 81%
    01:00 +5°C° 0 mm 1 mps 695 mmHg 82%
    02:00 +5°C° 0 mm 1 mps 695 mmHg 84%
    03:00 +4°C° 0 mm 1 mps 695 mmHg 85%
    04:00 +4°C° 0 mm 1 mps 696 mmHg 87%
    05:00 +4°C° 0 mm 1 mps 696 mmHg 89%
    06:00 +2°C° 0 mm 0 mps 696 mmHg 91%
    07:00 +5°C° 0 mm 1 mps 696 mmHg 84%
    08:00 +7°C° 0 mm 1 mps 696 mmHg 77%
    09:00 +9°C° 0 mm 1 mps 696 mmHg 69%
    10:00 +9°C° 0 mm 1 mps 696 mmHg 68%
    11:00 +9°C° 0 mm 2 mps 695 mmHg 66%
    12:00 +10°C° 0 mm 2 mps 695 mmHg 64%
    13:00 +10°C° 0 mm 2 mps 694 mmHg 63%
    14:00 +12°C° 0 mm 2 mps 694 mmHg 62%
    15:00 +13°C° 0 mm 1 mps 693 mmHg 61%
    16:00 +11°C° 0 mm 1 mps 693 mmHg 69%
    17:00 +10°C° 0 mm 1 mps 693 mmHg 77%
    18:00 +8°C° 0 mm 1 mps 692 mmHg 85%
    19:00 +7°C° 0 mm 1 mps 692 mmHg 87%
    20:00 +7°C° 0 mm 1 mps 693 mmHg 89%
    21:00 +6°C° 0 mm 1 mps 693 mmHg 91%
    22:00 +6°C° 0 mm 1 mps 692 mmHg 90%
    23:00 +6°C° 0 mm 1 mps 692 mmHg 89%
    Show more